Wiarton, Ontario

8:06 AM EDT on July 28, 2017 (GMT -0400)
Wiarton

Weather History for CYVV - March, 2013

Change the Weather History Date:

Saturday, March 2, 2013

  Actual Average Record
Temperature  
Mean Temperature 19 °F -  
Max Temperature 21 °F 37 °F 44 °F (1997)
Min Temperature 17 °F 20 °F -5 °F (2003)
Degree Days  
Heating Degree Days 46    
Moisture  
Dew Point 14 °F    
Average Humidity 78    
Maximum Humidity 86    
Minimum Humidity 61    
Precipitation  
Precipitation 0.00 in 0.09 in - ()
Sea Level Pressure  
Sea Level Pressure 30.06 in    
Wind  
Wind Speed 10 mph ()    
Max Wind Speed 16 mph    
Max Gust Speed 18 mph    
Visibility 13.6 miles    
Events Snow    
Averages and records for this station are not official NWS values.
T = Trace of Precipitation, MM = Missing Value Source: Averaged Metar Reports

Daily Weather History Graph

Daily Weather History Graph

Search for Another Location

Airport or City:

Trip Planner

Search our weather history database for the weather conditions in past years. The results will help you decide how hot, cold, wet, or windy it might be!

Date:

Astronomy

Mar. 02, 2013 Rise Set
Actual Time 6:59 AM EST 6:13 PM EST
Civil Twilight 6:30 AM EST 6:43 PM EST
Nautical Twilight 5:56 AM EST 7:16 PM EST
Astronomical Twilight 5:22 AM EST 7:50 PM EST
Moon No Moon Rise 9:12 AM EST (3/2)
Length of Visible Light 12h 12m
Length of Day
11h 13m
Waning Gibbous, 74% of the Moon is Illuminated
Mar 2
Waning Gibbous
Mar 4
Last Quarter
Mar 11
New
Mar 19
First Quarter
Mar 27
Full

Hourly Weather History & Observations

Time (EST) Temp. Windchill Dew Point Humidity Pressure Visibility Wind Dir Wind Speed Gust Speed Precip Events Conditions
12:00 AM 19.4 °F 7.2 °F 14.0 °F 80% 30.09 in 15.0 mi North 11.5 mph 18.4 mph N/A Snow Light Snow
1:00 AM 19.4 °F 7.2 °F 14.0 °F 80% 30.09 in 15.0 mi North 11.5 mph - N/A Snow Light Snow
2:00 AM 19.4 °F 7.2 °F 14.0 °F 80% 30.09 in 15.0 mi North 11.5 mph 18.4 mph N/A Snow Light Snow
3:00 AM 19.4 °F 7.2 °F 14.0 °F 80% 30.08 in 15.0 mi North 11.5 mph 17.3 mph N/A Snow Light Snow
3:31 AM - - - N/A% - 15.0 mi North 11.5 mph 17.3 mph N/A   Overcast
4:00 AM 19.4 °F 7.2 °F 14.0 °F 80% 30.07 in 15.0 mi North 11.5 mph - N/A   Overcast
4:40 AM - - - N/A% - 15.0 mi North 11.5 mph - N/A   Unknown
6:00 AM 19.4 °F 7.2 °F 14.0 °F 80% 30.07 in 15.0 mi North 11.5 mph - N/A Snow Light Snow
6:40 AM - - - N/A% - 15.0 mi North 9.2 mph - N/A   Overcast
7:00 AM 18 °F - 13 °F 75% 30.08 in 15 mi NNE 11.5 mph - - Snow Light Snow
8:00 AM 17.6 °F 3.7 °F 14.0 °F 86% 30.08 in 15.0 mi North 13.8 mph - N/A   Overcast
9:00 AM 17.6 °F 9.3 °F 14.0 °F 86% 30.09 in 15.0 mi North 5.8 mph - N/A   Overcast
10:00 AM 17.6 °F 3.7 °F 12.2 °F 79% 30.08 in 15.0 mi NNE 13.8 mph - N/A   Overcast
11:00 AM 19.4 °F 7.2 °F 14.0 °F 80% 30.08 in 15.0 mi NNE 11.5 mph - N/A   Overcast
12:00 PM 19.4 °F 7.2 °F 14.0 °F 80% 30.08 in 15.0 mi NNE 11.5 mph - N/A   Overcast
1:00 PM 19 °F - 14 °F 71% 30.06 in 15 mi NNW 16.1 mph - -   Overcast
1:00 PM 19.4 °F 5.0 °F 14.0 °F 80% 30.06 in 15.0 mi NNW 16.1 mph - N/A   Overcast
2:00 PM 19.4 °F 7.2 °F 14.0 °F 80% 30.06 in 15.0 mi NNW 11.5 mph - N/A   Overcast
3:00 PM 19.4 °F 8.6 °F 14.0 °F 80% 30.05 in 15.0 mi North 9.2 mph - N/A   Overcast
4:00 PM 19.4 °F 9.5 °F 14.0 °F 80% 30.05 in 10.0 mi NNW 8.1 mph - N/A   Overcast
4:10 PM - - - N/A% - 10.0 mi North 9.2 mph - N/A   Unknown
4:28 PM - - - N/A% - 15.0 mi NNW 9.2 mph - N/A   Mostly Cloudy
6:00 PM 21.2 °F 11.7 °F 14.0 °F 74% 30.06 in 15.0 mi NW 8.1 mph - N/A   Overcast
7:00 PM 20 °F - 12 °F 61% 30.06 in 15 mi WNW 9.2 mph - -   Partly Cloudy
7:00 PM 19.4 °F 8.6 °F 12.2 °F 74% 30.06 in 15.0 mi WNW 9.2 mph - N/A   Overcast
7:38 PM - - - N/A% - 15.0 mi WNW 9.2 mph - N/A   Unknown
8:00 PM 19.4 °F 10.4 °F 12.2 °F 74% 30.04 in 15.0 mi WNW 6.9 mph - N/A Snow Light Snow
9:00 PM 21.2 °F 12.6 °F 12.2 °F 68% 30.03 in 15.0 mi WNW 6.9 mph - N/A Snow Light Snow
10:00 PM 21.2 °F 14.9 °F 14.0 °F 74% 30.02 in 8.0 mi NW 4.6 mph - N/A Snow Light Snow
10:14 PM - - - N/A% - 2.0 mi North 6.9 mph - N/A   Unknown
11:00 PM 19.4 °F 9.5 °F 14.0 °F 80% 30.02 in 2.0 mi North 8.1 mph - N/A Snow Light Snow